Location: Elblag
(54.0944°N, 19.4042°E)
Time: 18:18:48
(UTC+02:00)

ISS - Visible Passes

Search period start: 20 September 2018 00:00
Search period end: 30 September 2018 00:00
Orbit: 403 x 408 km, 51.6° (Epoch: 20 September)

Date Brightness Start Highest point End Pass type
(mag) Time Alt. Az. Time Alt. Az. Time Alt. Az.
23 Sep -1.5 19:38:46 10° SSE 19:39:22 10° SE 19:39:35 10° SE visible
23 Sep -1.0 21:12:08 10° SW 21:12:18 11° SW 21:12:18 11° SW visible
24 Sep -2.4 20:20:39 10° SSW 20:22:51 23° S 20:22:51 23° S visible
25 Sep -2.1 19:29:23 10° SSW 19:31:42 18° SSE 19:33:16 14° ESE visible
25 Sep -1.9 21:04:31 10° WSW 21:05:57 22° SW 21:05:57 22° SW visible
26 Sep -3.1 20:12:49 10° SW 20:15:53 36° SSE 20:16:13 35° SE visible
26 Sep -0.6 21:48:53 10° W 21:48:54 10° W 21:48:54 10° W visible
27 Sep -2.6 19:21:13 10° SW 19:24:06 28° SSE 19:26:24 14° E visible
27 Sep -2.4 20:57:01 10° WSW 20:59:04 33° SW 20:59:04 33° SW visible
28 Sep -3.5 20:05:11 10° WSW 20:08:23 48° S 20:09:11 38° SE visible
28 Sep -0.8 21:41:27 10° W 21:41:51 13° W 21:41:51 13° W visible
29 Sep -3.1 19:13:24 10° SW 19:16:31 40° SSE 19:19:13 13° E visible
29 Sep -2.7 20:49:33 10° W 20:51:53 39° WSW 20:51:53 39° WSW visible
